sat.trackr.live / text

‹ back to catalog

STARLINK-32047

NORAD 61516 · 2024-183H

PAYLOAD ACTIVE UNKNOWN

§ Identity

Operator
Country
US
Launch date
2024-10-15
Launch site
AFETR
Launch vehicle
Mass (kg)
RCS (m²)

Purposes: comms

External: N2YO · Heavens-Above · Gunter

§ Orbital elements

Epoch: 2026-09-21T10:17:32.749728Z

Period
94.01 min
Inclination
53.1597°
Eccentricity
0.0001533
Mean motion
15.31704931 rev/d
Perigee alt
469.7 km
Apogee alt
471.8 km
Semi-major
6,848.9 km
B*
1.3897e-5
RAAN
311.6477°
Arg perigee
91.0520°
Mean anomaly
269.0657°
Rev number
10,964

§ Raw data

STARLINK-320471 61516U 24183H   26264.42885127  .00000066  00000+0  13897-4 0  99972 61516  53.1597 311.6477 0001533  91.0520 269.0657 15.31704931109648

JSON: /api/v1/satellites/61516 · /tle

For live sub-satellite position, see the globe view (requires WebGL).

§ Visibility from observer

Set your observer location to see the next 7 days of passes ≥ 10°. The values pass through the URL so the page stays shareable.

No JS? Fill the form by hand. The geolocation button needs JavaScript.